Time,TemperatureF,DewpointF,PressureIn,WindDirection,WindDirectionDegrees,WindSpeedMPH,WindSpeedGustMPH,Humidity,HourlyPrecipIn,Conditions,Clouds,dailyrainin,SoftwareType,DateUTC
2013-12-10 00:09:00,-6.3,-10.0,30.19,SSW,199,7.0,7.0,85,0.00,,,0.00,weatherlink.com 1.10,2013-12-10 06:09:00,
2013-12-10 00:24:00,-5.8,-9.0,30.19,SSW,209,7.0,8.0,85,0.00,,,0.00,weatherlink.com 1.10,2013-12-10 06:24:00,
2013-12-10 00:39:00,-5.5,-9.0,30.18,SSW,197,7.0,7.0,85,0.00,,,0.00,weatherlink.com 1.10,2013-12-10 06:39:00,
2013-12-10 00:54:00,-5.0,-8.0,30.18,SSW,192,5.0,8.0,85,0.00,,,0.00,weatherlink.com 1.10,2013-12-10 06:54:00,
2013-12-10 01:09:00,-5.3,-9.0,30.18,South,181,6.0,8.0,85,0.00,,,0.00,weatherlink.com 1.10,2013-12-10 07:09:00,
2013-12-10 01:24:00,-5.5,-9.0,30.17,South,175,7.0,7.0,84,0.00,,,0.00,weatherlink.com 1.10,2013-12-10 07:24:00,
2013-12-10 01:39:00,-5.9,-9.0,30.16,SSE,166,4.0,9.0,85,0.00,,,0.00,weatherlink.com 1.10,2013-12-10 07:39:00,
2013-12-10 01:54:00,-5.7,-9.0,30.15,South,183,5.0,9.0,85,0.00,,,0.00,weatherlink.com 1.10,2013-12-10 07:54:00,
2013-12-10 02:09:00,-4.5,-8.0,30.14,South,178,9.0,11.0,86,0.00,,,0.00,weatherlink.com 1.10,2013-12-10 08:09:00,
2013-12-10 02:24:00,-3.6,-7.0,30.13,South,169,10.0,11.0,85,0.00,,,0.00,weatherlink.com 1.10,2013-12-10 08:24:00,
2013-12-10 02:39:00,-3.2,-7.0,30.12,South,176,11.0,14.0,85,0.00,,,0.00,weatherlink.com 1.10,2013-12-10 08:39:00,
2013-12-10 02:54:00,-3.2,-7.0,30.11,South,188,8.0,15.0,85,0.00,,,0.00,weatherlink.com 1.10,2013-12-10 08:54:00,
2013-12-10 03:10:00,-2.3,-6.0,30.10,South,190,9.0,16.0,85,0.00,,,0.00,weatherlink.com 1.10,2013-12-10 09:10:00,
2013-12-10 03:25:00,-2.1,-6.0,30.08,South,179,9.0,13.0,84,0.00,,,0.00,weatherlink.com 1.10,2013-12-10 09:25:00,
2013-12-10 03:40:00,-1.9,-6.0,30.07,South,175,11.0,15.0,84,0.00,,,0.00,weatherlink.com 1.10,2013-12-10 09:40:00,
2013-12-10 03:55:00,-1.4,-5.0,30.06,SSE,161,10.0,15.0,84,0.00,,,0.00,weatherlink.com 1.10,2013-12-10 09:55:00,
2013-12-10 04:10:00,-0.8,-5.0,30.04,South,173,12.0,19.0,83,0.00,,,0.00,weatherlink.com 1.10,2013-12-10 10:10:00,
2013-12-10 04:25:00,-0.8,-5.0,30.03,South,169,14.0,18.0,84,0.00,,,0.00,weatherlink.com 1.10,2013-12-10 10:25:00,
2013-12-10 04:40:00,-0.3,-4.0,30.03,South,176,12.0,16.0,84,0.00,,,0.00,weatherlink.com 1.10,2013-12-10 10:40:00,
2013-12-10 04:55:00,-0.3,-4.0,30.02,South,180,10.0,15.0,83,0.00,,,0.00,weatherlink.com 1.10,2013-12-10 10:55:00,
2013-12-10 05:10:00,-0.3,-4.0,30.01,South,179,10.0,14.0,83,0.00,,,0.00,weatherlink.com 1.10,2013-12-10 11:10:00,
2013-12-10 05:25:00,1.7,-3.0,30.01,SSW,196,12.0,16.0,82,0.00,,,0.00,weatherlink.com 1.10,2013-12-10 11:25:00,
2013-12-10 05:40:00,3.1,-1.0,30.01,SSW,211,9.0,21.0,82,0.00,,,0.00,weatherlink.com 1.10,2013-12-10 11:40:00,
2013-12-10 05:55:00,3.6,0.0,30.00,SSW,193,7.0,16.0,83,0.00,,,0.00,weatherlink.com 1.10,2013-12-10 11:55:00,
2013-12-10 06:10:00,4.1,1.0,29.99,SSW,209,12.0,16.0,85,0.00,,,0.00,weatherlink.com 1.10,2013-12-10 12:10:00,
2013-12-10 06:25:00,4.7,1.0,29.99,SSW,211,11.0,17.0,85,0.00,,,0.00,weatherlink.com 1.10,2013-12-10 12:25:00,
2013-12-10 06:41:00,5.7,2.0,29.99,SSW,205,9.0,17.0,86,0.00,,,0.00,weatherlink.com 1.10,2013-12-10 12:41:00,
2013-12-10 06:56:00,6.8,4.0,29.99,SW,215,12.0,20.0,86,0.00,,,0.00,weatherlink.com 1.10,2013-12-10 12:56:00,
2013-12-10 07:11:00,7.4,4.0,29.99,SSW,212,10.0,14.0,85,0.00,,,0.00,weatherlink.com 1.10,2013-12-10 13:11:00,
2013-12-10 07:26:00,8.0,4.0,29.99,SSW,209,13.0,14.0,85,0.00,,,0.00,weatherlink.com 1.10,2013-12-10 13:26:00,
2013-12-10 07:41:00,9.3,5.0,30.00,SW,215,7.0,15.0,84,0.00,,,0.00,weatherlink.com 1.10,2013-12-10 13:41:00,
2013-12-10 07:56:00,10.8,7.0,30.00,SW,235,10.0,19.0,84,0.00,,,0.00,weatherlink.com 1.10,2013-12-10 13:56:00,
2013-12-10 08:11:00,11.7,8.0,30.00,SW,232,10.0,20.0,83,0.00,,,0.00,weatherlink.com 1.10,2013-12-10 14:11:00,
2013-12-10 08:26:00,12.1,7.0,30.00,SW,219,10.0,18.0,81,0.00,,,0.00,weatherlink.com 1.10,2013-12-10 14:26:00,
2013-12-10 08:41:00,12.2,7.0,30.01,SW,232,9.0,19.0,80,0.00,,,0.00,weatherlink.com 1.10,2013-12-10 14:41:00,
2013-12-10 08:56:00,12.7,8.0,30.01,WSW,238,7.0,15.0,80,0.00,,,0.00,weatherlink.com 1.10,2013-12-10 14:56:00,
2013-12-10 09:11:00,13.9,9.0,30.02,WSW,238,5.0,15.0,79,0.00,,,0.00,weatherlink.com 1.10,2013-12-10 15:11:00,
2013-12-10 09:26:00,14.7,9.0,30.02,SW,230,13.0,18.0,79,0.00,,,0.00,weatherlink.com 1.10,2013-12-10 15:26:00,
2013-12-10 09:41:00,14.9,10.0,30.03,SW,234,8.0,19.0,80,0.00,,,0.00,weatherlink.com 1.10,2013-12-10 15:41:00,
2013-12-10 09:57:00,15.6,11.0,30.04,WSW,238,9.0,21.0,81,0.00,,,0.00,weatherlink.com 1.10,2013-12-10 15:57:00,
2013-12-10 10:12:00,16.8,12.0,30.05,West,274,9.0,21.0,82,0.00,,,0.00,weatherlink.com 1.10,2013-12-10 16:12:00,
2013-12-10 10:27:00,16.9,11.0,30.05,West,272,17.0,25.0,76,0.00,,,0.00,weatherlink.com 1.10,2013-12-10 16:27:00,
2013-12-10 10:42:00,17.0,10.0,30.06,WNW,291,9.0,19.0,75,0.00,,,0.00,weatherlink.com 1.10,2013-12-10 16:42:00,
2013-12-10 10:57:00,17.0,9.0,30.07,WNW,282,14.0,24.0,70,0.00,,,0.00,weatherlink.com 1.10,2013-12-10 16:57:00,
2013-12-10 11:12:00,16.7,9.0,30.06,West,267,9.0,20.0,70,0.00,,,0.00,weatherlink.com 1.10,2013-12-10 17:12:00,
2013-12-10 11:27:00,16.8,8.0,30.06,WNW,291,9.0,19.0,68,0.00,,,0.00,weatherlink.com 1.10,2013-12-10 17:27:00,
2013-12-10 11:42:00,16.8,8.0,30.07,WSW,248,11.0,21.0,69,0.00,,,0.00,weatherlink.com 1.10,2013-12-10 17:42:00,
2013-12-10 11:57:00,16.7,9.0,30.09,WSW,257,14.0,22.0,73,0.00,,,0.00,weatherlink.com 1.10,2013-12-10 17:57:00,
2013-12-10 12:12:00,16.6,9.0,30.08,West,261,15.0,20.0,71,0.00,,,0.00,weatherlink.com 1.10,2013-12-10 18:12:00,
2013-12-10 12:27:00,16.3,8.0,30.08,West,273,9.0,21.0,71,0.00,,,0.00,weatherlink.com 1.10,2013-12-10 18:27:00,
2013-12-10 12:42:00,15.9,7.0,30.09,West,272,12.0,21.0,68,0.00,,,0.00,weatherlink.com 1.10,2013-12-10 18:42:00,
2013-12-10 12:57:00,15.9,7.0,30.09,West,276,8.0,16.0,69,0.00,,,0.00,weatherlink.com 1.10,2013-12-10 18:57:00,
2013-12-10 13:12:00,16.0,8.0,30.10,WSW,249,6.0,22.0,71,0.00,,,0.00,weatherlink.com 1.10,2013-12-10 19:12:00,
2013-12-10 13:28:00,15.8,8.0,30.12,West,270,16.0,21.0,70,0.00,,,0.00,weatherlink.com 1.10,2013-12-10 19:28:00,
2013-12-10 13:43:00,15.5,7.0,30.13,WSW,252,14.0,20.0,70,0.00,,,0.00,weatherlink.com 1.10,2013-12-10 19:43:00,
2013-12-10 13:58:00,15.0,7.0,30.14,West,275,12.0,21.0,70,0.00,,,0.00,weatherlink.com 1.10,2013-12-10 19:58:00,
2013-12-10 14:13:00,15.0,7.0,30.14,West,263,7.0,19.0,71,0.00,,,0.00,weatherlink.com 1.10,2013-12-10 20:13:00,
2013-12-10 14:28:00,14.7,7.0,30.15,West,267,6.0,23.0,70,0.00,,,0.00,weatherlink.com 1.10,2013-12-10 20:28:00,
2013-12-10 14:43:00,14.9,7.0,30.16,WNW,283,8.0,17.0,70,0.00,,,0.00,weatherlink.com 1.10,2013-12-10 20:43:00,
2013-12-10 14:58:00,14.9,7.0,30.17,WSW,244,9.0,17.0,70,0.00,,,0.00,weatherlink.com 1.10,2013-12-10 20:58:00,
2013-12-10 15:13:00,14.3,6.0,30.16,West,264,9.0,17.0,70,0.00,,,0.00,weatherlink.com 1.10,2013-12-10 21:13:00,
2013-12-10 15:28:00,13.7,6.0,30.16,West,277,7.0,15.0,70,0.00,,,0.00,weatherlink.com 1.10,2013-12-10 21:28:00,
2013-12-10 15:43:00,13.0,6.0,30.18,West,272,4.0,13.0,72,0.00,,,0.00,weatherlink.com 1.10,2013-12-10 21:43:00,
2013-12-10 15:58:00,12.4,6.0,30.19,WSW,257,2.0,11.0,74,0.00,,,0.00,weatherlink.com 1.10,2013-12-10 21:58:00,
2013-12-10 16:13:00,12.1,5.0,30.20,West,263,6.0,10.0,74,0.00,,,0.00,weatherlink.com 1.10,2013-12-10 22:13:00,
2013-12-10 16:28:00,11.7,5.0,30.20,WSW,256,6.0,11.0,73,0.00,,,0.00,weatherlink.com 1.10,2013-12-10 22:28:00,
2013-12-10 16:43:00,11.1,4.0,30.20,West,271,7.0,9.0,74,0.00,,,0.00,weatherlink.com 1.10,2013-12-10 22:43:00,
2013-12-10 16:59:00,10.7,4.0,30.20,WSW,253,3.0,8.0,74,0.00,,,0.00,weatherlink.com 1.10,2013-12-10 22:59:00,
2013-12-10 17:14:00,10.3,4.0,30.20,WSW,244,5.0,9.0,74,0.00,,,0.00,weatherlink.com 1.10,2013-12-10 23:14:00,
2013-12-10 17:29:00,10.1,4.0,30.21,West,271,5.0,8.0,75,0.00,,,0.00,weatherlink.com 1.10,2013-12-10 23:29:00,
2013-12-10 17:44:00,9.6,4.0,30.21,West,263,2.0,5.0,76,0.00,,,0.00,weatherlink.com 1.10,2013-12-10 23:44:00,
2013-12-10 17:59:00,9.8,4.0,30.22,WSW,243,5.0,5.0,77,0.00,,,0.00,weatherlink.com 1.10,2013-12-10 23:59:00,
2013-12-10 18:14:00,9.7,4.0,30.23,WSW,240,4.0,6.0,78,0.00,,,0.00,weatherlink.com 1.10,2013-12-11 00:14:00,
2013-12-10 18:29:00,10.0,5.0,30.23,WSW,258,4.0,8.0,79,0.00,,,0.00,weatherlink.com 1.10,2013-12-11 00:29:00,
2013-12-10 18:44:00,10.4,5.0,30.24,WSW,251,5.0,8.0,79,0.00,,,0.00,weatherlink.com 1.10,2013-12-11 00:44:00,
2013-12-10 18:59:00,11.0,5.0,30.26,WSW,242,5.0,9.0,78,0.00,,,0.00,weatherlink.com 1.10,2013-12-11 00:59:00,
2013-12-10 19:14:00,11.2,6.0,30.25,WSW,239,8.0,10.0,78,0.00,,,0.00,weatherlink.com 1.10,2013-12-11 01:14:00,
2013-12-10 19:29:00,11.4,6.0,30.25,WNW,283,5.0,11.0,77,0.00,,,0.00,weatherlink.com 1.10,2013-12-11 01:29:00,
2013-12-10 19:44:00,11.7,6.0,30.26,WSW,254,4.0,9.0,77,0.00,,,0.00,weatherlink.com 1.10,2013-12-11 01:44:00,
2013-12-10 19:59:00,11.9,6.0,30.26,WSW,245,2.0,9.0,77,0.00,,,0.00,weatherlink.com 1.10,2013-12-11 01:59:00,
2013-12-10 20:14:00,12.2,6.0,30.26,WSW,248,4.0,8.0,77,0.00,,,0.00,weatherlink.com 1.10,2013-12-11 02:14:00,
2013-12-10 20:30:00,12.5,7.0,30.26,West,273,4.0,8.0,77,0.00,,,0.00,weatherlink.com 1.10,2013-12-11 02:30:00,
2013-12-10 20:45:00,12.6,7.0,30.26,WSW,257,6.0,7.0,78,0.00,,,0.00,weatherlink.com 1.10,2013-12-11 02:45:00,
2013-12-10 21:00:00,12.8,7.0,30.28,West,261,3.0,7.0,78,0.00,,,0.00,weatherlink.com 1.10,2013-12-11 03:00:00,
2013-12-10 21:15:00,12.9,7.0,30.29,WSW,245,7.0,7.0,78,0.00,,,0.00,weatherlink.com 1.10,2013-12-11 03:15:00,
2013-12-10 21:30:00,12.9,8.0,30.28,WSW,245,8.0,8.0,79,0.00,,,0.00,weatherlink.com 1.10,2013-12-11 03:30:00,
2013-12-10 21:45:00,12.9,8.0,30.28,SW,231,7.0,9.0,82,0.00,,,0.00,weatherlink.com 1.10,2013-12-11 03:45:00,
2013-12-10 22:00:00,13.1,9.0,30.29,WSW,237,3.0,9.0,84,0.00,,,0.00,weatherlink.com 1.10,2013-12-11 04:00:00,
2013-12-10 22:15:00,13.1,10.0,30.29,SW,225,4.0,10.0,86,0.00,,,0.00,weatherlink.com 1.10,2013-12-11 04:15:00,
2013-12-10 22:30:00,13.1,10.0,30.29,SW,219,4.0,8.0,87,0.00,,,0.00,weatherlink.com 1.10,2013-12-11 04:30:00,
2013-12-10 22:45:00,13.2,10.0,30.29,SW,222,6.0,10.0,88,0.00,,,0.00,weatherlink.com 1.10,2013-12-11 04:45:00,
2013-12-10 23:00:00,13.1,10.0,30.29,SW,218,5.0,10.0,88,0.00,,,0.00,weatherlink.com 1.10,2013-12-11 05:00:00,
2013-12-10 23:15:00,13.2,11.0,30.29,SW,227,4.0,7.0,89,0.00,,,0.00,weatherlink.com 1.10,2013-12-11 05:15:00,
2013-12-10 23:30:00,13.2,11.0,30.29,SW,229,3.0,7.0,89,0.00,,,0.00,weatherlink.com 1.10,2013-12-11 05:30:00,
2013-12-10 23:46:00,13.2,11.0,30.29,WSW,243,5.0,6.0,89,0.00,,,0.00,weatherlink.com 1.10,2013-12-11 05:46:00,